Beckley, WV

8:42 AM EDT on March 26, 2017 (GMT -0400)
Raleigh County Memorial

Weather History for KBKW - November, 2012

Change the Weather History Date:

Sunday, November 11, 2012

  Actual Average Record
Temperature  
Mean Temperature 60 °F 46 °F  
Max Temperature 70 °F 55 °F 78 °F (1915)
Min Temperature 50 °F 36 °F 5 °F (1913)
Degree Days  
Heating Degree Days 5 19  
Month to date heating degree days 258 195  
Since 1 July heating degree days 786 701  
Cooling Degree Days 0 0  
Month to date cooling degree days 0 0  
Year to date cooling degree days 761 556  
Growing Degree Days 10 (Base 50)    
Moisture  
Dew Point 32 °F    
Average Humidity 43    
Maximum Humidity 62    
Minimum Humidity 23    
Precipitation  
Precipitation 0.00 in 0.09 in 0.88 in (1925)
Month to date precipitation 0.22 1.06  
Year to date precipitation 40.72 36.30  
Snow  
Snow 0.00 in - - ()
Month to date snowfall 0.0  
Since 1 September snowfall 22.9  
Snow Depth 0.00 in    
Sea Level Pressure  
Sea Level Pressure 30.31 in    
Wind  
Wind Speed 9 mph (SSE)    
Max Wind Speed 17 mph    
Max Gust Speed 25 mph    
Visibility 10 miles    
Events      
T = Trace of Precipitation, MM = Missing Value Source: NWS Daily Summary

Daily Weather History Graph

Daily Weather History Graph

Search for Another Location

Airport or City:

Trip Planner

Search our weather history database for the weather conditions in past years. The results will help you decide how hot, cold, wet, or windy it might be!

Date:

Astronomy

Nov. 11, 2012 Rise Set
Actual Time 7:00 AM EST 5:15 PM EST
Civil Twilight 6:33 AM EST 5:43 PM EST
Nautical Twilight 6:01 AM EST 6:15 PM EST
Astronomical Twilight 5:30 AM EST 6:45 PM EST
Moon 4:15 AM EST (11/11) 3:36 PM EST (11/11)
Length of Visible Light 11h 10m
Length of Day
10h 14m
Waning Crescent, 7% of the Moon is Illuminated
Nov 11
Waning Crescent
Nov 13
New
Nov 20
First Quarter
Nov 28
Full
Dec 6
Last Quarter

Hourly Weather History & Observations

Time (EST) Temp. Dew Point Humidity Pressure Visibility Wind Dir Wind Speed Gust Speed Precip Events Conditions
12:51 AM 55.9 °F 28.0 °F 34% 30.27 in 10.0 mi SSE 5.8 mph - N/A   Clear
1:51 AM 55.0 °F 27.0 °F 34% 30.27 in 10.0 mi SE 10.4 mph - N/A   Clear
2:51 AM 54.0 °F 27.0 °F 35% 30.27 in 10.0 mi SE 8.1 mph - N/A   Clear
3:51 AM 54.0 °F 27.0 °F 35% 30.27 in 10.0 mi SSE 9.2 mph - N/A   Clear
4:51 AM 53.1 °F 27.0 °F 37% 30.29 in 10.0 mi SE 8.1 mph 17.3 mph N/A   Clear
5:51 AM 52.0 °F 28.0 °F 40% 30.32 in 10.0 mi SE 8.1 mph - N/A   Clear
6:51 AM 52.0 °F 27.0 °F 38% 30.35 in 10.0 mi SSE 4.6 mph - N/A   Clear
7:51 AM 52.0 °F 28.0 °F 40% 30.38 in 10.0 mi SSE 4.6 mph - N/A   Clear
8:51 AM 55.9 °F 28.9 °F 36% 30.38 in 10.0 mi SSE 6.9 mph - N/A   Clear
9:51 AM 60.1 °F 28.0 °F 30% 30.38 in 10.0 mi SSE 11.5 mph - N/A   Clear
10:51 AM 63.0 °F 28.9 °F 28% 30.36 in 10.0 mi SSE 8.1 mph - N/A   Clear
11:51 AM 66.0 °F 32.0 °F 28% 30.33 in 10.0 mi Variable 6.9 mph - N/A   Clear
12:51 PM 68.0 °F 32.0 °F 26% 30.30 in 10.0 mi SSE 10.4 mph - N/A   Clear
1:51 PM 69.1 °F 30.9 °F 24% 30.27 in 10.0 mi SE 9.2 mph 18.4 mph N/A   Clear
2:51 PM 70.0 °F 30.0 °F 23% 30.26 in 10.0 mi SSE 17.3 mph 23.0 mph N/A   Clear
3:51 PM 66.9 °F 30.0 °F 25% 30.27 in 10.0 mi SSE 9.2 mph 17.3 mph N/A   Clear
4:51 PM 64.0 °F 30.9 °F 29% 30.27 in 10.0 mi SSE 10.4 mph 16.1 mph N/A   Clear
5:51 PM 62.1 °F 32.0 °F 32% 30.30 in 10.0 mi SSE 10.4 mph 18.4 mph N/A   Clear
6:51 PM 60.1 °F 35.1 °F 39% 30.31 in 10.0 mi SSE 15.0 mph 21.9 mph N/A   Clear
7:51 PM 59.0 °F 39.9 °F 49% 30.32 in 10.0 mi SSE 11.5 mph 20.7 mph N/A   Clear
8:51 PM 57.0 °F 42.1 °F 57% 30.32 in 10.0 mi SSE 11.5 mph 19.6 mph N/A   Clear
9:51 PM 57.0 °F 43.0 °F 59% 30.30 in 10.0 mi SSE 12.7 mph 19.6 mph N/A   Clear
10:51 PM 57.0 °F 44.1 °F 62% 30.29 in 10.0 mi SSE 4.6 mph 17.3 mph N/A   Clear
11:51 PM 57.0 °F 45.0 °F 64% 30.27 in 10.0 mi SE 5.8 mph - N/A   Clear